Location: Clerques
(50.7925°N, 1.9938°E)
Time: 10:59:49
(UTC+00:00)

Daily predictions for brighter satellites

Satellite Brightness Start Highest point End
(mag) Time Altitude Azimuth Time Altitude Azimuth Time Altitude Azimuth
CZ-4C R/B 3.3 16:15:38 10° NW 16:21:50 40° NNE 16:29:12 10° E
CZ-4B R/B 2.9 16:24:21 10° SSE 16:28:19 56° ENE 16:32:06 10° N
USA 305 3.0 16:24:11 10° W 16:28:23 67° NNW 16:32:37 10° ENE
SMAP 3.5 16:25:46 10° SE 16:30:07 41° ENE 16:34:30 10° N
Cosmos 1092 Rocket 4.5 16:25:23 10° N 16:31:21 40° ENE 16:37:16 10° SE
CZ-2C R/B 2.8 16:27:19 10° SSE 16:32:11 70° ENE 16:36:57 10° N
Cosmos 1898 Rocket 3.7 16:27:49 10° NNW 16:32:58 50° ENE 16:38:02 10° SE
Cosmos 44 3.8 16:28:40 10° NW 16:33:28 63° SW 16:37:56 10° SSE
Cosmos 1805 Rocket 4.4 16:29:54 10° N 16:33:41 28° ENE 16:37:28 10° SE
Cosmos 1461 4.2 16:30:05 10° WSW 16:33:52 33° NW 16:37:35 10° NNE
Sich 1 4.1 16:30:49 10° NNE 16:34:18 24° ENE 16:37:48 10° ESE
Okean 3 Rocket 4.3 16:32:45 10° NNW 16:37:12 59° W 16:41:35 10° S
Cosmos 2360 Rocket 4.1 16:35:15 10° N 16:37:29 12° NNE 16:39:44 10° NE
Cosmos 1842 Rocket 3.7 16:35:30 10° S 16:39:53 59° E 16:44:19 10° NNE
Cosmos 2221 2.5 16:35:43 10° S 16:39:57 67° E 16:44:15 10° NNE
Cosmos 1513 Rocket 4.5 16:34:17 10° S 16:40:24 82° E 16:46:40 10° NNE
PSLV R/B 4.5 16:40:13 10° SE 16:43:26 29° ENE 16:46:41 10° N
SL-08 R/B 3.3 16:39:58 10° NNE 16:44:44 80° ESE 16:49:23 10° SSW
deb Kosmos-1763 4.3 16:45:58 10° SW 16:49:21 61° WNW 16:52:45 10° NNE
Cosmos 2084 3.6 16:45:22 10° NW 16:49:38 80° SW 16:54:05 10° SE
Cosmos 1656 4.0 16:44:37 10° NNW 16:50:08 71° WSW 16:55:42 10° SSE
AQUARIUS 4.2 16:49:18 10° SSE 16:53:40 55° ENE 16:58:05 10° N
NOSS 2-1 (E) 4.0 16:51:47 10° WSW 16:54:49 37° NW 16:58:03 11° NNE
FengYun 1-2 T 4.2 16:49:33 10° SSE 16:55:09 82° ENE 17:00:44 10° NNW
NOSS 2-2 (C) 4.2 16:51:20 10° NW 16:56:02 57° NE 17:02:33 10° ESE
H-2A R/B 2.4 16:51:22 10° SE 16:56:08 40° ENE 17:00:50 10° N
Cosmos 2034 Rocket 3.9 16:50:40 10° S 16:56:45 70° E 17:02:54 10° NNE
Cosmos 1666 4.0 16:54:43 10° NNE 16:57:20 18° ENE 16:59:55 10° ESE
ERBS 2.7 16:54:15 10° W 16:57:23 48° NNW 16:59:46 16° NE
Cosmos 2322 Rocket 3.7 16:53:44 10° N 16:57:33 18° NNE 17:00:05 14° ENE
USA 306 3.1 16:56:18 10° W 17:00:31 58° N 17:03:44 16° ENE
Cosmos 1697 Rocket 2.6 16:55:52 10° NNW 17:01:32 79° ENE 17:07:08 10° SSE
Cosmos 1271 Rocket 4.3 16:58:19 10° SW 17:01:59 35° WNW 17:05:42 10° N
USA 267 3.3 16:58:13 13° ENE 17:04:15 74° SE 17:10:47 10° SW
Cosmos 2369 3.8 16:59:09 10° NNW 17:04:51 60° NE 17:10:30 10° SE
Cosmos 1980 Rocket 2.4 16:59:46 10° NNW 17:05:19 50° NE 17:10:47 10° SE
COSMO-SKYMED 1 3.9 17:05:07 16° ENE 17:07:02 21° E 17:10:19 10° SE
Cosmos 1763 Rocket 3.5 17:03:25 10° S 17:08:24 61° ESE 17:13:28 10° NNE
Cosmos 1939 Rocket 3.0 17:05:39 10° SSE 17:09:46 84° WSW 17:13:53 10° NNW
SL-24 R/B - RUBIN 2 3.6 17:05:40 10° NW 17:10:17 58° NE 17:14:35 10° ESE
Meteor 1-25 Rocket 4.1 17:04:54 10° N 17:10:30 80° ENE 17:16:06 10° SSE
Meteor 2-21 4.5 17:05:19 10° N 17:11:20 56° ENE 17:17:15 10° SSE
Cosmos 841 Rocket 4.2 17:09:26 10° SSE 17:14:00 33° ESE 17:17:15 17° NE
Cosmos 1937 Rocket 3.5 17:09:14 10° NNW 17:14:35 77° ENE 17:19:55 10° SSE
SL-16 R/B 3.3 17:10:23 10° NNW 17:14:59 24° NE 17:17:26 19° ENE
Cosmos 1812 3.9 17:13:00 10° SE 17:16:01 22° E 17:16:31 22° ENE
Cosmos 1633 Rocket 3.8 17:13:49 10° N 17:17:40 29° ENE 17:21:30 10° SE
Cosmos 1634 Rocket 4.2 17:12:25 10° SSE 17:18:30 52° E 17:24:36 10° NNE
USA 307 3.2 17:14:37 10° W 17:18:51 56° N 17:21:20 23° ENE
USA 229 DEB 4.3 17:11:59 10° NW 17:19:14 71° SW 17:26:57 10° SSE
USA 229 4.2 17:12:04 10° NW 17:19:19 71° SW 17:27:03 10° SSE
Cosmos 2082 Rocket 2.9 17:16:31 10° SSE 17:21:29 32° ESE 17:24:27 20° ENE
YAOGAN 1 3.9 17:22:20 20° NE 17:22:20 20° NE 17:24:55 10° NNE
Cosmos 2333 Rocket 4.0 17:20:11 10° N 17:23:04 14° NNE 17:24:10 13° NE
NOAA 6 4.3 17:18:00 10° S 17:23:08 73° WSW 17:28:18 10° NNW
Cosmos 2026 Rocket 3.9 17:17:04 10° N 17:23:16 73° E 17:29:19 10° SSE
SeaSat 1 4.4 17:20:17 10° N 17:23:57 21° NW 17:27:37 10° W
Cosmos 2195 Rocket 4.4 17:20:18 10° N 17:26:29 88° ENE 17:32:42 10° S
CZ-4B DEB 4.3 17:22:11 10° SSE 17:27:43 86° WSW 17:33:15 10° NNW
CORIOLIS 4.4 17:22:27 10° S 17:27:51 76° WSW 17:33:18 10° NNW
ATLAS 2AS CENTAUR R/B 4.0 17:21:42 10° WNW 17:28:30 32° N 17:33:27 16° NE
Cosmos 372 Rocket 3.9 17:23:41 10° NNW 17:28:55 67° ENE 17:34:08 10° SE
Cosmos 1602 3.7 17:25:17 10° NNW 17:29:09 85° W 17:33:01 10° S
Cosmos 2278 3.8 17:23:41 10° NNW 17:29:19 54° NE 17:34:53 10° SE
Okean O Rocket 1.9 17:26:43 10° SE 17:30:57 44° ENE 17:35:12 10° N
Cosmos 1743 Rocket 4.3 17:26:59 10° NNW 17:31:14 55° W 17:35:26 10° S
ATLAS CENTAUR R/B 3.4 17:29:57 10° WNW 17:33:22 22° NNW 17:36:14 13° NNE
Meteor 2-14 Rocket 4.4 17:29:19 10° N 17:35:29 83° E 17:41:34 10° SSE
Cosmos 1782 2.7 17:32:53 10° S 17:36:49 61° E 17:39:43 17° NNE
Cosmos 1151 Rocket 3.6 17:32:54 10° SSE 17:36:51 36° E 17:38:08 29° NE
COSMOS 2406 3.2 17:33:18 10° SSW 17:38:59 67° ESE 17:43:04 20° NE
USA 234 4.1 17:33:13 10° SE 17:39:34 52° SW 17:45:56 10° WNW
COSMOS 2455 3.1 17:35:00 10° S 17:40:45 49° ESE 17:43:55 26° NE
USA 308 3.2 17:37:09 10° W 17:41:20 54° N 17:42:51 35° ENE
Cosmos 1666 Rocket 3.5 17:38:17 10° N 17:42:43 59° ENE 17:47:04 10° SSE
ARGOS 3.1 17:39:20 10° SSE 17:44:40 62° ENE 17:50:01 10° N
Cosmos 1833 Rocket 2.6 17:39:53 10° SSW 17:45:31 90° WNW 17:49:48 18° NNE
Cosmos 1470 Rocket 4.3 17:41:41 10° N 17:45:00 32° NE 17:45:00 32° NE
ISS -3.3 17:45:44 10° WNW 17:49:05 58° SSW 17:50:10 36° SE
NOSS 2-2 (D) 4.4 17:44:21 10° NW 17:49:22 78° SW 17:56:24 10° SE
Cosmos 1328 Rocket 4.1 17:47:07 10° SSE 17:50:52 36° ESE 17:50:52 36° ESE
CZ-2D R/B 3.8 17:48:31 10° S 17:52:18 59° WSW 17:56:07 10° NNW
Cosmos 2219 Rocket 4.0 17:49:23 10° N 17:52:22 15° NNE 17:52:22 15° NNE
CZ-4 R/B 4.3 17:51:17 10° SSE 17:55:23 68° ENE 17:59:31 10° N
SKYMED 2 3.6 17:53:45 34° NE 17:55:26 57° E 17:59:42 10° S
Lacrosse 5 rocket 1.3 17:52:10 10° NW 17:56:01 56° NNE 17:56:30 51° NE
CZ-4 R/B 3.4 17:59:49 16° N 17:59:49 16° N 18:00:48 10° N
Meteor 2-21 Rocket 4.4 17:51:04 10° N 17:57:14 89° ENE 18:03:19 10° S
Cosmos 2298 Rocket 4.3 17:54:07 10° NNW 17:59:15 45° ENE 18:00:27 39° E
Landsat 5 3.9 18:00:27 40° SE 18:00:27 40° SE 18:03:38 10° S
Cosmos 1570 Rocket 4.3 17:56:24 10° S 18:01:21 44° ESE 18:02:05 41° E
CZ-4B R/B 3.2 17:56:13 10° SSE 18:01:39 82° WSW 18:07:02 10° NNW
ATLAS CENTAUR R/B 2.4 17:53:27 10° SW 18:02:07 84° SE 18:03:24 47° ENE
CZ-2C R/B 2.4 17:59:22 17° NNE 18:03:25 68° ESE 18:08:33 10° S
Cosmos 1500 3.9 17:59:47 10° NNW 18:03:27 52° W 18:07:05 10° S
SL-08 RB Rocket 3.6 17:59:52 10° SSE 18:04:27 63° ENE 18:09:01 10° N
GEOS 3 Rocket 3.5 18:02:08 29° ESE 18:04:49 72° NE 18:10:01 10° NW
Cosmos 540 Rocket 3.5 18:00:08 10° SSW 18:05:15 80° WNW 18:08:24 24° NNE
Meteor 1-11 Rocket 3.9 18:01:41 10° N 18:07:02 44° ENE 18:07:51 41° E
Cosmos 1818 3.5 18:01:36 10° NW 18:07:06 67° NE 18:09:02 40° ESE
USA 305 3.0 18:04:25 10° WNW 18:08:36 57° N 18:08:56 55° NNE
Cosmos 1814 Rocket 4.0 18:03:55 10° S 18:09:02 57° ESE 18:10:08 47° ENE
Cosmos 44 Rocket 3.2 18:05:57 10° NW 18:10:55 66° NE 18:11:46 54° E
CZ-4C R/B 2.9 18:04:04 10° NW 18:11:08 86° SW 18:19:31 10° SE
Sich 1 4.3 18:08:06 10° NNW 18:12:09 41° W 18:16:11 10° SSW
Feng Yun 1-1 Rocket 4.2 18:14:34 10° SSE 18:20:29 80° ENE 18:26:23 10° NNW
Cosmos 2360 Rocket 3.2 18:18:20 10° NNW 18:22:13 30° NNE 18:22:13 30° NNE
Cosmos 1666 3.8 18:29:32 10° NNW 18:33:05 43° W 18:36:36 10° SSW
Cosmos 2208 Rocket 4.0 18:28:42 10° S 18:33:46 65° SE 18:33:46 65° SE
H-2A R/B 3.6 18:30:57 10° SSW 18:35:38 34° W 18:40:15 10° NNW
Cosmos 2150 Rocket 3.8 18:32:01 10° NNW 18:37:02 77° NE 18:37:02 77° NE
USA 306 3.6 18:36:30 10° WNW 18:39:44 47° NW 18:39:44 47° NW
Cosmos 2322 Rocket 2.5 18:37:12 10° NNW 18:41:55 52° NNE 18:41:55 52° NNE
COSMO-SKYMED 1 3.3 18:42:21 39° NNW 18:43:30 51° WNW 18:47:42 10° SW
USA 267 3.5 18:45:34 47° NE 18:47:13 61° NNW 18:53:37 10° W
Cosmos 2279 Rocket 4.4 18:41:55 10° SSW 18:48:03 61° WNW 18:54:14 10° N
Cosmos 1980 Rocket 3.8 18:44:05 10° NW 18:49:09 34° WSW 18:54:09 10° S
Cosmos 2266 Rocket 4.0 18:43:39 10° N 18:50:03 83° W 18:56:28 10° S
Cosmos 1812 4.2 18:48:02 10° SW 18:51:34 34° WNW 18:51:36 34° WNW
Cosmos 841 Rocket 4.5 18:50:52 10° SW 18:55:46 43° WNW 18:57:22 33° NNW
YAOGAN 1 4.2 18:59:29 28° NW 18:59:29 28° NW 19:01:43 10° NNW
Cosmos 1125 Rocket 3.7 18:52:58 10° NNW 18:57:27 64° NW 18:57:27 64° NW
USA 307 4.3 18:54:48 10° WNW 18:57:22 35° WNW 18:57:22 35° WNW
SL-16 R/B 2.2 18:54:08 10° NNW 18:59:20 75° NW 18:59:20 75° NW
Meteor 2-15 Rocket 4.4 18:57:36 10° S 19:03:21 79° SSW 19:03:21 79° SSW
Cosmos 2237 Rocket 4.5 19:00:41 10° N 19:01:32 12° N 19:01:32 12° N
Cosmos 2082 Rocket 2.8 18:59:49 10° SW 19:05:22 52° NW 19:06:21 47° NNW
Okean O Rocket 3.8 19:03:48 10° SSW 19:07:28 25° W 19:11:10 10° NW
Cosmos 2333 Rocket 3.9 19:03:45 10° NNW 19:06:12 23° N 19:06:12 23° N
ATLAS CENTAUR R/B 4.2 19:11:15 10° NW 19:12:21 13° NNW 19:12:21 13° NNW
NOSS 3-4 (A) 4.4 19:12:16 10° NW 19:17:15 41° N 19:17:15 41° N
NOSS 3-4 (C) 4.4 19:12:22 10° NW 19:17:20 41° N 19:17:20 41° N
ATLAS 2AS CENTAUR R/B 3.8 19:14:45 10° NW 19:20:53 34° N 19:20:53 34° N
COSMOS 2455 3.7 19:21:04 10° WSW 19:26:49 44° NW 19:27:05 44° NW
Lacrosse 5 rocket 4.2 19:31:19 10° WNW 19:32:06 15° WNW 19:32:06 15° WNW
Cosmos 2219 Rocket 4.3 19:32:37 10° NNW 19:34:06 18° NNW 19:34:06 18° NNW
Cosmos 2360 Rocket 4.3 20:02:12 10° NW 20:04:00 21° NW 20:04:00 21° NW
